{"data":{"norad_id":58549,"epoch":"2026-09-20T15:42:20.269728Z","epoch_age_seconds":136333,"freshness":"FRESH","line1":"1 58549U 23192U   26263.65440127 -.00000516  00000+0 -41269-5 0  9996","line2":"2 58549  53.1593 233.0133 0001324  84.6046 275.5108 15.34390353155894","mean_motion":15.34390353,"eccentricity":0.0001324,"inclination_deg":53.1593,"raan_deg":233.0133,"arg_perigee_deg":84.6046,"mean_anomaly_deg":275.5108,"bstar":-4.1269e-6,"rev_number":15589,"period_min":93.848348119796,"perigee_km":461.82618223023,"apogee_km":463.63764431846,"semimajor_km":6840.8689132743,"source":"CELESTRAK","updated_at":"2026-09-21T09:00:33.915881Z"}}